Vertical_Velocity
-2 -2 -2 -3 -3 -2 -2 -2 -2 -3 -4 -4 -4 -4 -4 -3 -3 -3 -3 -3 -4 -4 -4 -3 -2 -2 -2 -1 -1 -2 -2 -1 -0 0 -0 -0 -1 -1 -1 -1 -1 -1 -1 -1 -1 -0 -0 -1 -1 -2 -2 -2 -2 -2 -3 -3 -4 -4 -5 -5 -3 -2 0 2 3 3 2 1 -0
-2 -1 -1 -2 -2 -2 -2 -2 -2 -2 -3 -3 -3 -4 -4 -4 -4 -3 -3 -3 -3 -3 -4 -3 -2 -2 -1 -1 -1 -1 -2 -1 -1 0 1 1 0 -0 -0 -0 -0 -1 -1 -1 -1 -0 0 -0 -1 -1 -2 -2 -2 -2 -3 -5 -5 -5 -4 -3 -1 0 1 2 2 2 1 1 -0
-1 -1 -1 -1 -1 -2 -2 -2 -1 -1 -2 -2 -3 -3 -3 -4 -3 -3 -3 -2 -2 -3 -3 -3 -3 -2 -1 -1 -1 -1 -1 -2 -1 -1 -0 0 1 0 0 -0 0 -0 -0 -0 -0 0 1 0 -1 -1 -1 -2 -2 -3 -4 -5 -5 -4 -2 -1 0 0 -0 -0 -0 -0 -0 -0 -0
-1 -1 -1 -1 -1 -1 -1 -2 -2 -2 -2 -2 -2 -2 -2 -2 -2 -2 -2 -2 -2 -2 -2 -3 -3 -3 -2 -1 -1 -1 -1 -1 -1 -1 -1 -0 1 1 1 0 0 1 1 1 1 1 1 1 -1 -1 -1 -2 -2 -3 -4 -5 -3 -2 -0 1 -0 -2 -2 -3 -2 -1 -1 -0 -0
-0 -1 -1 -1 -1 -1 -1 -1 -1 -2 -2 -2 -2 -2 -2 -1 -1 -2 -2 -2 -1 -1 -1 -2 -2 -2 -2 -1 -1 -1 -1 -1 -1 -1 -1 -0 0 1 1 1 1 1 1 1 1 2 2 1 0 0 -0 -2 -2 -3 -4 -4 -2 0 0 -1 -2 -3 -4 -3 -2 -2 -1 -1 -1
-1 -1 -1 -1 -0 -0 -0 -0 -0 -1 -1 -1 -1 -1 -1 -1 -0 -1 -1 -1 -1 -0 -0 -0 -1 -1 -1 -1 -1 -1 -0 -0 -0 -0 -1 -1 -0 0 1 1 2 2 2 2 2 3 3 2 2 1 0 -1 -2 -3 -4 -3 -1 -0 -1 -2 -3 -3 -3 -3 -2 -2 -2 -1 -1
-2 -1 -1 -1 -0 -0 -0 -0 0 0 -0 -0 -0 -0 -0 -0 0 0 0 0 -0 -0 -0 0 -0 -1 -1 -1 -1 -1 -1 -1 -0 -0 -0 -1 -1 -0 1 1 2 2 2 2 3 4 5 3 3 2 1 -0 -2 -3 -3 -1 -1 -2 -3 -3 -3 -3 -3 -2 -2 -2 -2 -1 -1
-1 -1 -0 -0 -0 -0 -0 -0 -0 -0 -0 -0 -0 -0 -0 -0 -0 0 1 1 1 0 -0 -0 -0 -0 -1 -2 -2 -2 -2 -1 -1 -0 -0 -1 -1 -1 -0 1 2 2 3 3 4 6 7 5 4 2 1 -0 -2 -3 -2 -0 -1 -3 -3 -4 -3 -2 -2 -2 -2 -2 -2 -1 -0
-1 -0 -0 -0 -0 -0 -0 -0 -0 -0 -0 -0 -0 -0 -0 -0 0 0 1 1 1 1 0 0 0 -0 -0 -1 -1 -2 -2 -2 -1 -1 -1 -1 -1 -1 -1 0 1 2 3 4 5 7 8 7 6 5 3 0 -3 -3 -2 -0 -2 -3 -3 -3 -3 -2 -2 -2 -2 -2 -1 -1 0
-1 -1 -1 -1 -1 -0 -0 -0 0 0 0 0 1 1 1 1 1 1 1 1 1 1 1 0 -0 -0 -0 -0 -0 -1 -1 -1 -1 -1 -1 -1 -1 -1 -1 -1 0 1 2 4 6 8 10 9 8 7 4 -1 -3 -2 -1 -1 -2 -2 -3 -3 -3 -2 -2 -2 -2 -2 -2 -1 -0
-2 -2 -2 -2 -1 -1 -0 0 1 1 1 1 2 2 2 2 2 2 2 2 2 2 1 1 -0 -1 -1 -0 -0 -0 -0 -1 -1 -2 -1 -1 -1 -1 -1 -1 -0 0 1 3 5 8 11 11 9 7 3 -0 -0 -0 -0 -0 -1 -2 -3 -2 -2 -2 -2 -2 -2 -2 -2 -1 -1
-2 -2 -2 -1 -1 -1 -0 0 1 2 2 2 2 3 3 2 2 2 2 2 2 1 1 1 -0 -1 -1 -1 -1 -1 -0 -1 -1 -2 -2 -2 -2 -2 -1 -1 -1 -0 0 1 3 7 10 12 10 7 5 3 1 1 1 1 -1 -2 -3 -1 -1 -1 -1 -2 -2 -2 -2 -1 -2
-2 -1 -1 -1 -1 -0 0 1 1 2 2 2 2 2 2 2 1 1 1 1 1 0 0 -0 -1 -2 -2 -2 -2 -2 -2 -2 -2 -3 -3 -3 -3 -3 -3 -2 -1 -1 -0 1 2 5 8 11 10 8 5 3 2 1 1 2 -1 -3 -3 -0 0 0 -0 -1 -2 -2 -1 -1 -1
-1 -1 -0 -0 -0 0 1 1 1 1 1 1 1 1 1 1 0 0 0 0 -0 -1 -1 -2 -1 -2 -2 -3 -3 -3 -3 -3 -3 -4 -4 -4 -4 -4 -4 -3 -2 -2 -1 1 1 3 6 12 12 10 7 4 2 1 1 1 -2 -4 -3 1 1 1 1 -1 -2 -2 -2 -1 -0
-0 0 0 1 0 0 0 0 1 0 0 -0 -0 -1 -1 -1 -0 -0 -0 -0 -1 -1 -2 -3 -2 -2 -1 -2 -2 -2 -2 -3 -3 -4 -4 -5 -4 -4 -4 -4 -3 -2 -1 1 2 2 4 13 13 11 8 5 3 2 2 1 -1 -2 -0 3 2 2 2 3 -2 -3 -2 0 1
0 1 1 1 0 0 0 -0 -0 -1 -1 -1 -1 -1 -1 -1 -1 -1 -1 -1 -1 -1 -2 -3 -3 -2 -1 -0 -1 -1 -2 -2 -3 -4 -4 -5 -5 -5 -4 -4 -4 -3 -2 1 2 0 2 11 12 11 9 6 3 3 3 2 1 1 3 5 1 0 2 5 0 -1 -1 1 2
1 0 0 0 0 -0 -1 -1 -1 -1 -2 -2 -2 -2 -1 -1 -1 -1 -1 -2 -2 -2 -2 -2 -2 -2 -1 0 -0 -1 -3 -3 -3 -3 -4 -4 -4 -5 -5 -4 -4 -4 -3 -0 2 -0 0 10 12 11 9 6 3 2 3 3 2 2 3 5 1 -2 -3 -0 -0 -0 -0 0 2
-0 -0 -0 -1 -1 -1 -1 -1 -2 -2 -2 -2 -1 -1 -1 -1 -1 -1 -1 -1 -2 -2 -2 -2 -2 -1 -0 1 0 -1 -3 -3 -3 -3 -3 -3 -3 -3 -4 -4 -4 -4 -3 -0 2 -0 -0 9 11 11 8 5 3 3 3 3 2 2 3 3 1 -2 -4 -4 -2 -1 -0 1 3
-2 -1 -1 -1 -1 -1 -1 -2 -2 -2 -2 -1 -1 -1 -1 -0 -1 -0 -0 -0 -1 -2 -3 -3 -2 -0 1 1 0 -1 -1 -1 -2 -2 -2 -1 -2 -2 -2 -2 -2 -2 -2 0 2 -0 0 9 10 8 4 1 4 5 5 3 2 1 1 -0 -1 -1 -1 -1 -1 -1 0 2 3
-2 -2 -2 -2 -2 -2 -2 -2 -2 -2 -1 -1 -1 -0 -0 -0 -0 -1 -1 -1 -2 -2 -3 -3 -2 -1 0 -0 -1 -0 0 1 -0 -1 -2 -1 -1 -1 -1 -0 0 0 0 1 2 1 2 9 7 3 -0 -0 6 8 7 3 -0 -1 -2 -2 -1 -1 -1 -0 -0 -0 0 2 3
-3 -3 -3 -3 -3 -2 -2 -2 -2 -2 -1 -1 -0 -0 -0 -0 -1 -1 -2 -2 -3 -3 -3 -3 -2 -1 -1 -2 -3 -2 0 2 0 -1 -2 -2 -1 -1 -0 0 2 2 1 1 1 1 3 9 6 2 -0 2 8 10 8 2 -1 -2 -2 -1 -1 -0 0 1 -0 -0 1 3 5
-3 -3 -3 -3 -3 -2 -2 -2 -2 -1 -1 -0 0 0 -0 -1 -1 -1 -2 -3 -3 -4 -4 -3 -1 -0 -1 -2 -3 -3 -1 1 1 0 -1 -2 -2 -1 0 2 3 3 2 1 1 2 4 9 7 6 6 8 9 8 5 1 -0 -1 -1 -1 -0 2 3 2 -0 0 2 5 11
-4 -4 -3 -3 -2 -2 -2 -2 -2 -1 -0 -0 -0 -0 -1 -1 -2 -2 -3 -3 -4 -4 -4 -3 -1 -0 -0 -1 -3 -3 -2 -1 -0 -0 -1 -2 -2 0 3 5 4 3 2 2 1 2 4 8 11 16 20 19 11 6 2 1 1 0 0 -0 5 10 11 5 -1 0 5 11 15
-4 -4 -3 -3 -2 -2 -2 -2 -1 -1 -1 -1 -1 -2 -2 -2 -2 -3 -4 -4 -4 -4 -3 -2 -1 -0 -1 -2 -2 -2 -2 -2 -2 -2 -2 -2 1 5 8 9 10 10 8 3 1 2 6 11 25 33 33 20 8 2 0 1 1 1 2 5 15 20 17 3 -2 1 8 14 14
-4 -3 -3 -3 -3 -3 -2 -2 -2 -1 -1 -1 -2 -2 -2 -3 -4 -4 -4 -4 -4 -3 -2 -2 -1 -2 -3 -3 -2 -2 -2 -3 -3 -2 -0 2 6 8 11 12 18 21 18 6 -1 -0 6 18 41 41 27 8 2 -0 0 2 2 3 6 12 20 20 13 -0 -2 1 6 10 8
-3 -3 -3 -3 -3 -3 -3 -2 -2 -2 -2 -2 -2 -2 -3 -4 -4 -4 -3 -2 -2 -2 -2 -2 -3 -4 -4 -4 -3 -3 -3 -4 -2 0 3 5 7 9 11 15 23 28 24 6 -6 -7 5 27 44 33 13 1 -0 -1 -0 1 4 6 9 13 13 9 4 -2 -2 1 3 4 3
-3 -3 -3 -3 -4 -3 -3 -2 -2 -2 -2 -2 -3 -3 -4 -4 -4 -2 -0 0 -1 -2 -3 -4 -5 -5 -5 -5 -5 -5 -4 -3 -1 1 2 3 6 9 14 22 33 34 23 0 -8 -0 17 37 31 18 5 -0 -1 -2 -1 2 6 8 8 7 4 1 -1 -2 0 2 4 4 3
-3 -3 -4 -4 -3 -3 -2 -2 -2 -2 -2 -3 -3 -4 -4 -4 -3 -1 1 1 -0 -3 -5 -7 -7 -6 -6 -6 -6 -5 -4 -3 -2 -1 1 3 6 10 17 28 36 31 18 4 4 14 25 29 18 8 1 -1 -3 -3 -1 3 5 5 5 4 3 2 1 1 3 4 4 3 1
-3 -4 -4 -3 -2 -2 -2 -3 -3 -3 -3 -3 -3 -3 -4 -3 -2 -1 1 2 -0 -4 -7 -8 -8 -7 -7 -7 -6 -5 -4 -3 -2 -1 0 2 4 9 16 28 28 24 21 23 14 12 14 15 10 5 2 0 -3 -3 -1 3 5 6 7 9 10 8 6 5 5 4 3 1 1
-4 -4 -3 -2 -2 -2 -2 -3 -3 -3 -3 -3 -3 -3 -3 -2 -1 -0 0 1 -1 -3 -5 -6 -6 -7 -7 -6 -5 -4 -3 -3 -2 -1 -0 1 3 7 13 21 17 22 30 34 7 -1 1 4 4 3 3 1 -1 -1 2 6 8 11 13 15 16 16 13 8 6 3 1 1 2
-3 -3 -3 -2 -2 -2 -2 -3 -3 -3 -3 -3 -3 -3 -3 -2 -1 -1 -0 0 -1 -3 -4 -4 -5 -5 -5 -5 -4 -3 -2 -2 -2 -2 -1 -0 2 5 9 12 11 24 38 39 5 -5 -2 -0 2 3 3 3 3 4 7 11 12 13 15 16 18 17 13 6 2 1 2 3 2
-3 -3 -2 -2 -2 -2 -2 -3 -3 -3 -3 -3 -3 -3 -2 -2 -1 0 1 0 -2 -4 -6 -7 -7 -8 -7 -5 -3 -2 -2 -2 -2 -2 -2 -0 2 3 4 5 7 29 50 49 8 -4 -2 -0 1 2 2 3 7 11 13 14 16 17 17 16 15 11 6 1 1 0 1 1 2
-2 -2 -2 -2 -2 -2 -3 -3 -4 -3 -3 -3 -3 -3 -2 -1 0 1 1 -0 -3 -6 -8 -9 -10 -10 -9 -7 -4 -3 -2 -2 -2 -2 -2 -0 2 2 2 0 4 27 53 60 16 -1 -3 -1 0 0 1 2 9 15 19 20 25 26 23 15 8 3 -1 -3 -3 -3 -3 -2 1
-2 -2 -2 -2 -2 -2 -3 -3 -3 -3 -3 -3 -3 -2 -2 -2 -1 -0 -0 -1 -3 -4 -6 -8 -8 -8 -7 -6 -5 -3 -2 -2 -2 -2 -2 -1 1 1 1 -1 2 19 42 63 23 4 -2 -1 -1 -1 -1 -1 7 14 20 23 29 29 24 12 3 -2 -4 -4 -4 -3 -3 -2 1
-2 -2 -2 -2 -2 -2 -3 -3 -3 -3 -3 -3 -3 -3 -3 -3 -2 -2 -2 -2 -2 -3 -4 -5 -6 -6 -5 -4 -4 -4 -4 -2 -2 -1 -1 -0 1 0 -1 -2 0 10 28 54 24 6 -1 -1 -1 -2 -3 -3 3 11 18 20 23 23 19 11 3 1 0 1 0 -0 -1 -1 0
-3 -3 -3 -2 -3 -3 -3 -3 -3 -3 -3 -3 -4 -4 -3 -3 -2 -2 -2 -3 -3 -3 -4 -5 -5 -5 -4 -4 -6 -6 -6 -4 -2 -1 1 1 1 -1 -2 -3 -2 3 16 42 25 9 -1 -0 0 -1 -3 -5 -2 5 12 15 16 15 13 10 6 3 2 1 -0 -1 -1 -1 0
-3 -3 -3 -3 -3 -3 -3 -3 -3 -3 -3 -4 -5 -5 -4 -3 -3 -3 -3 -4 -5 -6 -6 -6 -6 -5 -4 -5 -6 -7 -7 -6 -4 -2 -0 0 -1 -2 -3 -4 -4 -2 6 27 25 12 -1 -1 2 1 -1 -5 -5 -1 4 8 8 8 8 7 6 3 1 -1 -2 -2 -1 -0 3
-3 -3 -3 -3 -4 -4 -4 -4 -3 -3 -4 -4 -5 -5 -5 -4 -4 -4 -4 -5 -6 -7 -8 -8 -7 -5 -5 -5 -5 -5 -5 -5 -4 -3 -3 -3 -3 -4 -4 -3 -5 -6 -3 8 15 11 2 -3 1 3 2 -2 -6 -5 -2 2 2 2 2 2 2 2 1 -0 -1 -1 -0 -0 2
-2 -2 -3 -3 -4 -4 -5 -4 -4 -4 -4 -4 -4 -4 -4 -4 -4 -4 -4 -5 -6 -7 -8 -8 -7 -5 -5 -4 -4 -4 -3 -2 -2 -3 -4 -4 -4 -3 -2 -2 -4 -6 -8 -5 3 5 3 -2 -2 1 3 1 -2 -4 -5 -3 -2 -2 -2 -2 -2 -1 -1 -0 0 0 -0 -0 -0
-1 -2 -3 -4 -4 -5 -5 -5 -4 -4 -3 -4 -4 -4 -4 -5 -4 -4 -3 -3 -4 -6 -7 -8 -6 -5 -4 -4 -3 -3 -2 -1 -1 -2 -2 -3 -2 -1 -1 -1 -2 -4 -6 -7 -3 -1 0 -2 -5 -2 2 2 1 -0 -2 -4 -3 -3 -3 -3 -3 -3 -3 -3 -2 -2 -1 -1 -1
-1 -1 -2 -4 -4 -5 -5 -4 -4 -4 -4 -4 -4 -4 -4 -4 -3 -3 -3 -3 -3 -5 -6 -7 -6 -5 -4 -3 -3 -3 -2 -2 -1 -1 -1 -1 -1 -1 -0 -0 -2 -3 -5 -5 -4 -3 -2 -2 -6 -5 -2 1 1 1 1 1 -0 -1 -2 -3 -3 -3 -3 -3 -3 -3 -3 -2 -2
Height
3031 3028 3025 3023 3020 3018 3016 3014 3011 3009 3007 3004 3002 3000 2998 2995 2993 2991 2989 2987 2985 2983 2980 2978 2977 2975 2973 2971 2969 2968 2966 2964 2963 2961 2960 2958 2957 2956 2954 2953 2952 2951 2949 2948 2947 2946 2945 2944 2943 2942 2941 2940 2939 2938 2937 2936 2936 2935 2934 2934 2934 2934 2934 2934 2934 2934 2933 2933 2933
3029 3026 3024 3021 3019 3017 3014 3012 3010 3008 3005 3003 3000 2998 2995 2993 2991 2989 2987 2985 2983 2980 2978 2976 2974 2972 2970 2968 2967 2965 2963 2962 2960 2958 2957 2956 2954 2953 2952 2951 2949 2948 2947 2946 2945 2944 2943 2942 2941 2939 2938 2938 2937 2936 2935 2934 2933 2932 2932 2932 2933 2933 2933 2933 2932 2932 2932 2931 2930
3028 3025 3022 3020 3017 3015 3013 3010 3008 3006 3003 3001 2998 2996 2993 2991 2989 2987 2984 2982 2980 2978 2976 2973 2971 2969 2968 2966 2964 2962 2960 2958 2957 2955 2954 2953 2951 2950 2949 2948 2947 2946 2945 2944 2943 2942 2941 2940 2938 2937 2936 2935 2934 2933 2932 2931 2930 2930 2930 2931 2931 2931 2931 2930 2930 2930 2929 2929 2928
3026 3023 3021 3018 3016 3013 3011 3008 3006 3004 3001 2999 2996 2994 2991 2989 2987 2984 2982 2980 2978 2975 2973 2971 2968 2967 2964 2963 2961 2959 2957 2955 2954 2952 2951 2949 2948 2947 2946 2945 2944 2943 2943 2942 2941 2940 2939 2938 2936 2935 2934 2933 2932 2931 2930 2929 2928 2928 2929 2929 2929 2929 2929 2928 2928 2928 2927 2927 2926
3024 3022 3019 3016 3014 3011 3009 3007 3004 3002 2999 2997 2994 2992 2989 2987 2984 2982 2980 2978 2975 2973 2971 2968 2966 2964 2962 2959 2958 2956 2954 2952 2951 2949 2948 2946 2945 2944 2943 2942 2941 2940 2940 2939 2938 2938 2937 2935 2934 2933 2932 2931 2930 2928 2928 2927 2927 2927 2928 2928 2927 2927 2927 2926 2926 2926 2925 2925 2924
3023 3020 3017 3015 3012 3010 3007 3005 3002 3000 2997 2995 2993 2990 2988 2985 2983 2980 2978 2975 2973 2970 2968 2966 2963 2961 2959 2957 2954 2953 2951 2949 2947 2946 2944 2943 2942 2941 2940 2939 2938 2938 2937 2937 2936 2935 2934 2933 2932 2931 2930 2928 2928 2927 2926 2925 2925 2926 2926 2926 2926 2925 2925 2924 2924 2923 2923 2923 2922
3021 3018 3016 3013 3011 3008 3006 3003 3001 2998 2996 2993 2990 2988 2985 2983 2980 2978 2975 2973 2970 2968 2965 2963 2961 2958 2956 2953 2952 2949 2948 2946 2944 2943 2941 2939 2938 2937 2936 2936 2935 2935 2934 2934 2933 2933 2932 2931 2930 2929 2928 2927 2926 2925 2924 2924 2924 2924 2924 2924 2924 2924 2923 2923 2922 2922 2921 2921 2920
3020 3017 3014 3012 3009 3007 3004 3002 2999 2996 2994 2991 2988 2986 2983 2981 2978 2975 2973 2970 2968 2965 2963 2960 2958 2955 2953 2950 2948 2946 2944 2942 2941 2939 2938 2936 2935 2934 2933 2932 2932 2932 2931 2931 2931 2931 2930 2929 2928 2927 2926 2925 2924 2923 2923 2923 2923 2923 2923 2923 2923 2922 2922 2921 2920 2920 2920 2919 2919
3018 3016 3013 3010 3008 3005 3002 3000 2997 2994 2992 2989 2986 2984 2981 2978 2975 2973 2970 2968 2965 2962 2960 2957 2955 2952 2950 2948 2945 2943 2941 2939 2938 2936 2934 2933 2931 2930 2930 2929 2929 2928 2928 2928 2928 2928 2928 2927 2926 2926 2924 2923 2922 2922 2922 2922 2922 2922 2921 2921 2921 2921 2920 2919 2919 2918 2918 2918 2918
3017 3014 3011 3008 3006 3003 3000 2998 2995 2992 2990 2987 2984 2982 2979 2976 2973 2970 2967 2965 2962 2959 2957 2954 2952 2949 2947 2945 2943 2940 2938 2936 2934 2933 2931 2929 2928 2927 2926 2926 2925 2925 2925 2925 2925 2926 2926 2925 2925 2924 2923 2922 2921 2921 2921 2921 2921 2920 2920 2920 2919 2919 2918 2918 2918 2917 2917 2917 2916
3016 3013 3010 3007 3004 3001 2998 2996 2993 2990 2988 2985 2982 2979 2977 2973 2970 2968 2964 2962 2959 2957 2954 2951 2949 2946 2944 2942 2940 2938 2936 2933 2932 2930 2928 2927 2925 2924 2923 2923 2922 2922 2922 2922 2923 2923 2923 2923 2923 2923 2921 2921 2920 2920 2920 2920 2919 2919 2919 2918 2918 2918 2917 2917 2917 2916 2916 2915 2915
3014 3011 3008 3005 3002 2999 2997 2994 2991 2988 2986 2983 2980 2977 2974 2971 2968 2965 2962 2959 2956 2954 2951 2949 2946 2944 2942 2940 2938 2935 2933 2931 2929 2927 2925 2923 2922 2921 2920 2919 2919 2919 2919 2919 2919 2920 2921 2922 2922 2921 2920 2920 2919 2919 2919 2918 2918 2918 2918 2918 2917 2917 2916 2916 2915 2915 2915 2914 2914
3013 3010 3007 3003 3001 2998 2995 2992 2989 2987 2984 2981 2978 2975 2972 2968 2965 2962 2959 2957 2954 2951 2949 2947 2944 2942 2939 2937 2935 2933 2931 2929 2927 2925 2923 2921 2919 2918 2917 2916 2916 2916 2916 2916 2916 2917 2918 2920 2920 2920 2919 2918 2918 2918 2918 2917 2917 2916 2916 2917 2916 2916 2915 2915 2914 2914 2914 2913 2913
3012 3008 3005 3003 2999 2996 2993 2991 2988 2985 2982 2979 2976 2973 2969 2966 2963 2960 2957 2954 2952 2949 2947 2944 2942 2940 2938 2935 2933 2931 2929 2927 2925 2923 2920 2918 2917 2915 2913 2913 2912 2912 2913 2913 2913 2914 2916 2918 2918 2918 2918 2917 2916 2916 2916 2916 2915 2915 2915 2915 2915 2915 2914 2914 2913 2913 2913 2913 2913
3011 3008 3004 3001 2998 2995 2992 2989 2986 2983 2980 2977 2974 2971 2968 2964 2961 2958 2955 2952 2950 2948 2945 2943 2941 2938 2936 2934 2932 2929 2927 2925 2923 2920 2918 2916 2914 2912 2911 2909 2909 2909 2909 2910 2911 2912 2914 2916 2917 2916 2916 2915 2915 2915 2915 2914 2914 2914 2914 2914 2914 2913 2914 2914 2913 2912 2912 2912 2912
3010 3007 3003 3000 2997 2994 2991 2988 2985 2982 2978 2975 2972 2969 2966 2962 2959 2956 2953 2950 2948 2946 2944 2942 2939 2937 2935 2933 2930 2928 2925 2923 2921 2918 2916 2914 2912 2910 2908 2907 2905 2905 2906 2907 2908 2909 2911 2913 2915 2915 2914 2914 2913 2913 2913 2913 2913 2913 2913 2913 2912 2912 2913 2913 2912 2911 2911 2911 2911
3009 3006 3003 2999 2996 2993 2990 2987 2983 2980 2977 2973 2970 2967 2964 2960 2957 2954 2952 2949 2947 2945 2943 2940 2938 2936 2934 2931 2929 2926 2924 2921 2919 2916 2914 2912 2909 2907 2906 2904 2903 2902 2903 2904 2905 2907 2909 2912 2913 2913 2913 2912 2912 2912 2912 2912 2912 2912 2912 2911 2911 2911 2911 2911 2910 2910 2910 2910 2911
3008 3005 3002 2998 2995 2992 2988 2985 2982 2978 2975 2972 2968 2965 2962 2959 2956 2953 2950 2948 2946 2944 2942 2939 2937 2935 2933 2930 2928 2925 2922 2919 2917 2914 2912 2910 2908 2906 2904 2902 2901 2900 2900 2901 2903 2905 2907 2909 2911 2911 2911 2911 2911 2910 2910 2910 2910 2910 2910 2910 2910 2909 2909 2909 2909 2909 2909 2910 2910
3008 3004 3001 2998 2994 2991 2987 2984 2980 2977 2973 2970 2967 2964 2961 2958 2955 2952 2950 2947 2945 2943 2941 2939 2936 2934 2932 2930 2927 2924 2921 2918 2916 2913 2911 2909 2907 2905 2903 2901 2899 2898 2898 2899 2901 2903 2905 2908 2908 2909 2909 2909 2909 2909 2909 2909 2908 2908 2908 2908 2908 2908 2908 2908 2908 2909 2909 2910 2910
3007 3003 3000 2996 2993 2989 2986 2982 2979 2975 2972 2969 2966 2963 2959 2957 2954 2951 2949 2947 2944 2942 2940 2938 2936 2933 2931 2929 2926 2923 2921 2918 2915 2913 2910 2908 2906 2904 2902 2900 2899 2898 2898 2898 2900 2902 2904 2906 2907 2908 2908 2907 2907 2908 2908 2907 2907 2907 2907 2907 2907 2907 2907 2908 2908 2908 2909 2909 2910
3006 3002 2998 2995 2991 2988 2984 2981 2978 2974 2971 2968 2964 2961 2958 2955 2953 2951 2948 2946 2944 2942 2940 2938 2935 2933 2930 2928 2925 2923 2920 2917 2915 2913 2910 2908 2906 2904 2902 2900 2899 2898 2898 2898 2900 2902 2903 2905 2906 2906 2906 2906 2906 2907 2906 2906 2906 2906 2906 2906 2906 2906 2907 2907 2907 2908 2908 2909 2909
3005 3001 2997 2993 2990 2987 2983 2980 2977 2973 2970 2967 2963 2960 2958 2955 2953 2950 2948 2946 2944 2942 2939 2937 2934 2932 2930 2927 2924 2922 2920 2917 2915 2913 2911 2909 2907 2905 2903 2901 2900 2899 2899 2900 2901 2902 2903 2904 2905 2905 2905 2906 2906 2906 2906 2905 2905 2905 2905 2905 2906 2906 2906 2907 2907 2907 2908 2909 2909
3004 3000 2996 2993 2989 2986 2983 2979 2976 2973 2969 2966 2963 2959 2957 2954 2952 2950 2948 2946 2944 2942 2939 2937 2934 2932 2929 2927 2924 2922 2920 2918 2916 2913 2912 2910 2908 2906 2904 2903 2902 2902 2902 2902 2902 2902 2903 2904 2905 2906 2907 2907 2906 2905 2905 2904 2904 2904 2905 2905 2906 2907 2907 2907 2907 2907 2908 2908 2909
3003 2999 2996 2993 2989 2986 2982 2979 2975 2972 2968 2965 2962 2959 2957 2954 2952 2950 2948 2946 2944 2941 2939 2936 2934 2932 2929 2927 2925 2923 2920 2918 2916 2914 2912 2910 2908 2907 2905 2905 2905 2905 2905 2904 2904 2904 2904 2905 2907 2908 2908 2906 2905 2904 2904 2904 2904 2904 2904 2905 2906 2907 2907 2906 2906 2906 2907 2907 2907
3003 2999 2996 2992 2989 2985 2982 2978 2975 2971 2968 2964 2962 2959 2957 2954 2952 2950 2948 2946 2944 2941 2939 2936 2934 2932 2929 2927 2925 2923 2921 2919 2917 2915 2913 2911 2909 2908 2907 2906 2907 2908 2908 2907 2906 2906 2906 2908 2910 2909 2907 2905 2904 2904 2904 2903 2903 2904 2904 2905 2906 2906 2906 2905 2905 2905 2906 2906 2906
3003 2999 2996 2992 2988 2985 2981 2978 2974 2971 2968 2964 2962 2959 2957 2954 2952 2950 2948 2946 2944 2942 2939 2937 2934 2932 2929 2928 2926 2924 2922 2920 2918 2916 2913 2912 2910 2909 2908 2908 2908 2908 2908 2908 2908 2908 2909 2910 2909 2907 2905 2904 2904 2904 2904 2904 2904 2904 2904 2905 2905 2904 2904 2904 2904 2905 2905 2906 2906
3003 2999 2996 2992 2988 2984 2981 2978 2974 2971 2968 2964 2962 2959 2957 2954 2953 2951 2949 2947 2944 2942 2939 2937 2934 2932 2930 2928 2927 2925 2923 2921 2918 2917 2915 2913 2912 2912 2911 2910 2910 2909 2909 2909 2910 2911 2911 2909 2907 2905 2905 2905 2905 2905 2905 2904 2904 2905 2904 2904 2903 2903 2904 2904 2904 2905 2906 2906 2906
3003 2999 2996 2992 2988 2984 2981 2978 2974 2971 2968 2964 2962 2959 2957 2955 2953 2951 2949 2947 2945 2942 2939 2937 2935 2933 2931 2929 2928 2926 2924 2922 2920 2918 2917 2916 2915 2914 2913 2912 2910 2910 2911 2913 2913 2912 2911 2908 2907 2906 2905 2905 2906 2906 2906 2905 2905 2904 2904 2903 2903 2903 2904 2904 2905 2905 2906 2906 2906
3003 2999 2996 2992 2988 2985 2981 2978 2974 2971 2968 2964 2962 2959 2957 2955 2953 2952 2950 2948 2945 2942 2940 2938 2936 2934 2932 2930 2929 2927 2925 2923 2922 2920 2919 2918 2917 2915 2914 2912 2910 2911 2914 2916 2913 2911 2910 2909 2908 2907 2906 2906 2907 2907 2906 2906 2905 2904 2904 2904 2904 2904 2904 2905 2905 2906 2906 2906 2906
3003 3000 2996 2992 2988 2985 2981 2978 2974 2971 2968 2965 2962 2960 2958 2956 2954 2952 2950 2948 2945 2943 2941 2939 2937 2935 2933 2932 2930 2928 2927 2925 2923 2922 2921 2919 2918 2917 2915 2913 2912 2913 2916 2917 2913 2911 2910 2909 2908 2908 2908 2908 2908 2908 2907 2906 2905 2905 2904 2904 2904 2904 2905 2905 2905 2905 2905 2906 2905
3004 3000 2996 2993 2989 2985 2981 2978 2974 2971 2968 2965 2963 2960 2958 2957 2955 2953 2950 2948 2946 2944 2942 2940 2938 2936 2934 2933 2931 2930 2928 2927 2925 2923 2922 2920 2919 2918 2917 2915 2914 2915 2917 2916 2913 2910 2910 2909 2908 2908 2908 2909 2909 2909 2908 2907 2906 2906 2905 2905 2905 2904 2905 2905 2905 2905 2906 2906 2906
3004 3000 2997 2993 2989 2985 2981 2978 2974 2971 2968 2965 2963 2961 2959 2957 2955 2953 2951 2949 2947 2944 2943 2941 2939 2937 2936 2934 2933 2931 2929 2928 2926 2925 2923 2922 2921 2920 2918 2917 2916 2917 2919 2917 2913 2911 2910 2909 2909 2909 2909 2910 2910 2910 2909 2908 2908 2907 2906 2905 2905 2904 2904 2904 2905 2905 2905 2906 2905
3004 3001 2997 2993 2989 2985 2982 2978 2975 2972 2969 2966 2964 2962 2960 2958 2956 2954 2952 2949 2947 2945 2943 2941 2939 2938 2937 2935 2934 2932 2931 2929 2928 2926 2925 2923 2923 2921 2920 2919 2917 2918 2920 2919 2915 2912 2911 2911 2910 2910 2910 2910 2911 2911 2910 2910 2909 2908 2907 2906 2905 2904 2904 2904 2904 2904 2905 2905 2905
3005 3001 2997 2993 2990 2986 2982 2979 2975 2972 2969 2967 2964 2962 2960 2958 2956 2954 2952 2950 2948 2946 2944 2943 2941 2939 2938 2937 2935 2934 2932 2931 2929 2928 2926 2925 2924 2923 2922 2921 2919 2919 2920 2921 2917 2914 2913 2912 2911 2911 2911 2911 2911 2911 2911 2910 2910 2909 2908 2906 2905 2905 2905 2905 2905 2905 2905 2905 2905
3005 3001 2998 2994 2990 2987 2983 2979 2976 2973 2970 2968 2965 2963 2961 2959 2957 2955 2953 2951 2949 2947 2945 2943 2942 2941 2939 2938 2937 2935 2934 2932 2930 2929 2928 2927 2926 2925 2924 2923 2921 2920 2921 2922 2918 2915 2914 2913 2913 2912 2912 2912 2911 2911 2911 2911 2910 2909 2908 2907 2906 2906 2906 2906 2906 2905 2905 2905 2905
3005 3002 2998 2994 2991 2987 2983 2980 2977 2973 2971 2968 2966 2963 2961 2959 2958 2956 2954 2952 2950 2948 2946 2945 2943 2942 2940 2939 2938 2937 2935 2933 2932 2931 2929 2928 2928 2926 2925 2924 2923 2921 2922 2923 2920 2917 2915 2915 2914 2913 2913 2913 2912 2911 2910 2910 2910 2910 2909 2909 2908 2908 2907 2907 2907 2906 2905 2905 2905
3006 3002 2998 2995 2991 2988 2984 2980 2977 2974 2971 2968 2966 2964 2962 2960 2958 2956 2954 2953 2951 2949 2947 2946 2944 2943 2941 2940 2938 2937 2936 2935 2934 2933 2931 2930 2929 2928 2927 2925 2924 2922 2922 2923 2921 2918 2916 2915 2915 2914 2914 2913 2913 2912 2911 2910 2910 2910 2910 2909 2909 2909 2908 2908 2907 2906 2906 2905 2906
3006 3003 2999 2995 2992 2988 2984 2981 2978 2975 2972 2969 2967 2965 2963 2961 2959 2957 2955 2953 2951 2950 2948 2946 2945 2943 2942 2941 2939 2938 2937 2936 2935 2934 2933 2932 2930 2929 2928 2926 2925 2923 2922 2922 2922 2920 2918 2916 2915 2915 2914 2913 2913 2913 2912 2910 2910 2910 2909 2909 2909 2909 2909 2908 2908 2907 2906 2905 2905
3007 3003 3000 2996 2992 2989 2985 2982 2978 2975 2972 2970 2967 2965 2963 2961 2959 2958 2956 2954 2953 2951 2949 2947 2946 2945 2943 2942 2941 2940 2938 2938 2937 2935 2934 2933 2932 2931 2929 2928 2926 2924 2923 2922 2922 2921 2920 2917 2916 2915 2915 2913 2913 2913 2912 2911 2910 2910 2909 2909 2909 2908 2908 2908 2907 2907 2906 2905 2905
3007 3004 3000 2997 2993 2989 2986 2983 2979 2976 2973 2970 2968 2966 2964 2962 2960 2959 2957 2955 2953 2952 2950 2948 2947 2946 2944 2943 2942 2941 2940 2939 2938 2937 2935 2934 2933 2932 2930 2929 2927 2925 2923 2923 2922 2921 2920 2919 2917 2916 2915 2914 2913 2912 2912 2911 2910 2910 2909 2909 2908 2908 2908 2907 2907 2906 2906 2905 2904
3008 3004 3001 2998 2994 2990 2987 2983 2980 2977 2974 2971 2968 2966 2964 2963 2961 2959 2958 2956 2954 2953 2951 2949 2948 2946 2945 2944 2943 2941 2940 2940 2939 2938 2936 2935 2934 2933 2931 2929 2928 2926 2924 2923 2922 2922 2921 2920 2918 2917 2915 2914 2913 2912 2911 2911 2910 2909 2909 2908 2908 2907 2907 2906 2906 2905 2905 2904 2904